STARLINK-32294, 61675

Orbit data source: Space-Track

STARLINK-32294, 61675 is a payload satellite owned by SpaceX/Seattle (US) in LEO that was launched on Sat, 26 Oct 2024 UTC via an FALCON 9 launch vehicle from the Air Force Eastern Test Range (AFETR). Payload-class satellites include a variety of spacecraft equipped with specific instruments for various scientific and technological missions. These include communications satellites like Starlink; space stations such as the ISS; scientific satellites like the Hubble; Earth observation satellites from companies like Planet Labs, Umbra, and HawkEye 360; GPS; miniature CubeSats for education and research; and military/defense satellites.

Loading next visibility...
Identifier
61675, 2024-193Q
Orbit
LEO
Country
Flag of USUS
Related business
Manufacturer
SpaceX/Seattle
Mission
Operational Commercial Communications
Bus & Motor
STARLINK V2M, Unknown motor
Mass
730 kg wet, ~700 kg dry
Launch date (UTC)
2024-10-26 (2 years ago)
Launch vehicle
FALCON 9
Launch site
Air Force Eastern Test Range (AFETR)
Object type
Payload
Rocket body
Debris
Shape & HBR
Box + 2 Pan, 17.7 m
Radar Cross Section
33.884 m², Large (>1 m²)

Expand to show TLE details & history
Last TLE update: 12 hours ago

TLE from 12 hours ago
0 STARLINK-32294
1 61675U 24193Q   26125.40823513  .00000508  00000-0  29278-4 0  9991
2 61675  53.1600 187.3320 0001008  96.2142 263.8974 15.30195010 85219
Epoch: 2026-05-05T09:47Z
TLE epoch observation values (Epoch: 2026-05-05T09:47:51.515Z)
Latitude
0.00002°
Longitude
177.08386°
Altitude
476.203 km
Speed
7.629 km/s
True Right ascension
12h 29m 19s
True Declination
0° 00' 00"
Sunlit
Object was in full shadow at epoch
Visualization orbit readout
Latitude
Unknown
Longitude
Unknown
Altitude
Unknown
Speed
Unknown
Apparent Right ascension
Unknown
Apparent Declination
Unknown
Sunlit
N/A
Visualization observer readout
Local Sidereal Time
05:24:49
Azimuth
Unknown
Elevation
Unknown
Doppler factor
Unknown
Orbital elements
Apogee altitude
476.177 km
Perigee altitude
474.796 km
Semi-major axis
6,853.623 km
Eccentricity
0.0001
Inclination
53.16°
RAAN
187.332°
Arg. of periapsis
96.2142°
True anomaly
263.88591°
Mean anomaly
263.8974°
Eccentric anomaly
263.89166°
Mean motion
3.82528 °/min
Orbital period
94.11 mins
BSTAR
0.000029278
Loading maneuver chart data...
Computing Atmospheric mass density...
Loading historical data...
Loading historical data...
Loading historical data...
Loading historical data...
Loading historical data...
Loading historical data...
Loading historical data...

Documentation

Showing up to 5 results
|